CAPE
0 0 0 0 0 0 0 0 0 0 0 0 0 0 0 0 0 0 0 0 0 0 0 0 0 0 0 0 0 0 0 0 0 0 0 0 0 0 0 0 0 0 0
0 0 0 0 0 0 0 0 0 0 0 0 0 0 0 0 0 0 0 0 0 0 0 0 0 0 0 0 0 0 0 0 0 0 0 0 0 0 0 0 0 0 0
0 0 0 0 0 0 0 0 0 0 0 0 0 0 0 0 0 0 0 0 0 0 0 0 0 0 0 0 0 0 0 0 0 0 0 0 0 0 0 0 0 0 0
0 0 0 0 0 0 0 0 0 0 0 0 0 0 0 0 0 0 0 0 0 0 0 0 0 0 0 0 0 0 0 0 0 0 0 0 0 0 0 0 0 0 0
0 0 0 0 0 0 0 0 0 0 0 0 0 0 0 0 0 0 0 0 0 0 0 0 0 0 0 0 0 0 0 0 0 0 0 0 0 0 0 0 0 0 0
0 0 0 0 0 0 0 0 0 0 0 0 0 0 0 0 0 0 0 0 0 0 0 0 0 0 0 0 0 0 0 0 0 0 0 0 0 0 0 0 0 0 0
0 0 0 0 0 0 0 0 0 0 0 0 0 0 0 0 0 0 0 0 0 0 0 0 0 0 0 0 0 0 0 0 0 0 0 0 0 0 0 0 0 0 0
0 0 0 0 0 0 0 0 0 0 0 0 0 0 0 0 0 0 0 0 0 0 0 0 0 0 0 0 0 0 0 0 0 0 0 0 0 0 0 0 0 0 0
0 0 0 0 0 0 0 0 0 0 0 0 0 0 0 0 0 0 0 0 0 0 0 0 0 0 0 0 0 0 0 0 0 0 0 0 0 0 0 0 0 0 0
0 0 0 0 0 0 0 0 0 0 0 0 0 0 0 0 0 0 0 0 0 0 0 0 0 0 0 0 0 0 0 0 0 0 0 0 0 0 0 0 0 0 0
0 0 0 0 0 0 0 0 0 0 0 0 0 0 0 0 0 0 0 0 0 0 0 0 0 0 0 0 0 0 0 0 0 0 0 0 0 0 0 0 0 0 0
0 0 0 0 0 0 0 0 0 0 0 0 0 0 0 0 0 0 0 0 0 0 0 0 0 0 0 0 0 0 0 0 0 0 0 0 0 0 0 0 0 0 0
0 0 0 0 0 0 0 0 0 0 0 0 0 0 0 0 0 0 0 0 0 0 0 0 0 0 0 0 0 0 0 0 0 0 0 0 0 0 0 0 0 0 0
0 0 0 0 0 0 0 0 0 0 0 0 0 0 0 0 0 0 0 0 0 0 0 0 0 0 0 0 0 0 0 0 0 0 0 0 0 0 0 0 0 0 0
0 0 0 0 0 0 0 0 0 0 0 0 0 0 0 0 0 0 0 0 0 0 0 0 0 0 0 0 0 0 0 0 0 0 0 0 0 0 0 0 0 0 0
0 0 0 0 0 0 0 0 0 0 0 0 0 0 0 0 0 0 0 0 0 0 0 0 0 0 0 0 0 0 0 0 0 0 0 0 0 0 0 0 0 0 0
0 0 0 0 0 0 0 0 0 0 0 0 0 0 0 0 0 0 0 0 0 0 0 0 0 0 0 0 0 0 0 0 0 0 0 0 0 0 0 0 0 0 0
0 0 0 0 0 0 0 0 0 0 0 0 0 0 0 0 0 0 0 0 0 0 0 0 0 0 0 0 0 0 0 0 0 0 0 0 0 0 0 0 0 0 0
0 0 0 0 0 0 0 0 0 0 0 0 0 0 0 0 0 0 0 0 0 0 0 0 0 0 0 0 0 0 0 0 0 0 0 0 0 0 0 0 0 0 0
0 0 0 0 0 0 0 0 0 0 0 0 0 0 0 0 0 0 0 0 0 0 0 0 0 0 0 0 0 0 0 0 0 0 0 0 0 0 0 0 0 0 0
0 0 0 0 0 0 0 0 0 0 0 0 0 0 0 0 0 0 0 0 0 0 0 0 0 0 0 0 0 0 0 0 0 0 0 0 0 0 0 0 0 0 0
0 0 0 0 0 0 0 0 0 0 0 0 0 0 0 0 0 0 0 0 0 0 0 0 0 0 0 0 0 0 0 0 0 0 0 0 0 0 0 0 0 0 0
0 0 0 0 0 0 0 0 0 0 0 0 0 0 0 0 0 0 0 0 0 0 0 0 0 0 0 0 0 0 0 0 0 0 0 0 0 0 0 0 0 0 0
0 0 0 0 0 0 0 0 0 0 0 0 0 0 0 0 0 0 0 0 0 0 0 0 0 0 0 0 0 0 0 0 0 0 0 0 0 0 0 0 0 0 0
0 0 0 0 0 0 0 0 0 0 0 0 0 0 0 0 0 0 0 0 0 0 0 0 0 0 0 0 0 0 0 0 0 0 0 0 0 0 0 0 0 0 0
0 0 0 0 0 0 0 0 0 0 0 0 0 0 0 0 0 0 0 0 0 0 0 0 0 0 0 0 0 0 0 0 0 0 0 0 0 0 0 0 0 0 0
CIN
0 0 0 0 0 0 0 0 0 0 0 0 0 0 0 0 0 0 0 0 0 0 0 0 0 0 0 0 0 0 0 0 0 0 0 0 0 0 0 0 0 0 0
0 0 0 0 0 0 0 0 0 0 0 0 0 0 0 0 0 0 0 0 0 0 0 0 0 0 0 0 0 0 0 0 0 0 0 0 0 0 0 0 0 0 0
0 0 0 0 0 0 0 0 0 0 0 0 0 0 0 0 0 0 0 0 0 0 0 0 0 0 0 0 0 0 0 0 0 0 0 0 0 0 0 0 0 0 0
0 0 0 0 0 0 0 0 0 0 0 0 0 0 0 0 0 0 0 0 0 0 0 0 0 0 0 0 0 0 0 0 0 0 0 0 0 0 0 0 0 0 0
0 0 0 0 0 0 0 0 0 0 0 0 0 0 0 0 0 0 0 0 0 0 0 0 0 0 0 0 0 0 0 0 0 0 0 0 0 0 0 0 0 0 0
0 0 0 0 0 0 0 0 0 0 0 0 0 0 0 0 0 0 0 0 0 0 0 0 0 0 0 0 0 0 0 0 0 0 0 0 0 0 0 0 0 0 0
0 0 0 0 0 0 0 0 0 0 0 0 0 0 0 0 0 0 0 0 0 0 0 0 0 0 0 0 0 0 0 0 0 0 0 0 0 0 0 0 0 0 0
0 0 0 0 0 0 0 0 0 0 0 0 0 0 0 0 0 0 0 0 0 0 0 0 0 0 0 0 0 0 0 0 0 0 0 0 0 0 0 0 0 0 0
0 0 0 0 0 0 0 0 0 0 0 0 0 0 0 0 0 0 0 0 0 0 0 0 0 0 0 0 0 0 0 0 0 0 0 0 0 0 0 0 0 0 0
0 0 0 0 0 0 0 0 0 0 0 0 0 0 0 0 0 0 0 0 0 0 0 0 0 0 0 0 0 0 0 0 0 0 0 0 0 0 0 0 0 0 0
0 0 0 0 0 0 0 0 0 0 0 0 0 0 0 0 0 0 0 0 0 0 0 0 0 0 0 0 0 0 0 0 0 0 0 0 0 0 0 0 0 0 0
0 0 0 0 0 0 0 0 0 0 0 0 0 0 0 0 0 0 0 0 0 0 0 0 0 0 0 0 0 0 0 0 0 0 0 0 0 0 0 0 0 0 0
0 0 0 0 0 0 0 0 0 0 0 0 0 0 0 0 0 0 0 0 0 0 0 0 0 0 0 0 0 0 0 0 0 0 0 0 0 0 0 0 0 0 0
0 0 0 0 0 0 0 0 0 0 0 0 0 0 0 0 0 0 0 0 0 0 0 0 0 0 0 0 0 0 0 0 0 0 0 0 0 0 0 0 0 0 0
0 0 0 0 0 0 0 0 0 0 0 0 0 0 0 0 0 0 0 0 0 0 0 0 0 0 0 0 0 0 0 0 0 0 0 0 0 0 0 0 0 0 0
0 0 0 0 0 0 0 0 0 0 0 0 0 0 0 0 0 0 0 0 0 0 0 0 0 0 0 0 0 0 0 0 0 0 0 0 0 0 0 0 0 0 0
0 0 0 0 0 0 0 0 0 0 0 0 0 0 0 0 0 0 0 0 0 0 0 0 0 0 0 0 0 0 0 0 0 0 0 0 0 0 0 0 0 0 0
0 0 0 0 0 0 0 0 0 0 0 0 0 0 0 0 0 0 0 0 0 0 0 0 0 0 0 0 0 0 0 0 0 0 0 0 0 0 0 0 0 0 0
0 0 0 0 0 0 0 0 0 0 0 0 0 0 0 0 0 0 0 0 0 0 0 0 0 0 0 0 0 0 0 0 0 0 0 0 0 0 0 0 0 0 0
0 0 0 0 0 0 0 0 0 0 0 0 0 0 0 0 0 0 0 0 0 0 0 0 0 0 0 0 0 0 0 0 0 0 0 0 0 0 0 0 0 0 0
0 0 0 0 0 0 0 0 0 0 0 0 0 0 0 0 0 0 0 0 0 0 0 0 0 0 0 0 0 0 0 0 0 0 0 0 0 0 0 0 0 0 0
0 0 0 0 0 0 0 0 0 0 0 0 0 0 0 0 0 0 0 0 0 0 0 0 0 0 0 0 0 0 0 0 0 0 0 0 0 0 0 0 0 0 0
0 0 0 0 0 0 0 0 0 0 0 0 0 0 0 0 0 0 0 0 0 0 0 0 0 0 0 0 0 0 0 0 0 0 0 0 0 0 0 0 0 0 0
0 0 0 0 0 0 0 0 0 0 0 0 0 0 0 0 0 0 0 0 0 0 0 0 0 0 0 0 0 0 0 0 0 0 0 0 0 0 0 0 0 0 0
0 0 0 0 0 0 0 0 0 0 0 0 0 0 0 0 0 0 0 0 0 0 0 0 0 0 0 0 0 0 0 0 0 0 0 0 0 0 0 0 0 0 0
0 0 0 0 0 0 0 0 0 0 0 0 0 0 0 0 0 0 0 0 0 0 0 0 0 0 0 0 0 0 0 0 0 0 0 0 0 0 0 0 0 0 0
Wind_Speed
9 10 14 15 14 14 17 18 16 14 12 8 6 4 7 4 4 5 7 7 7 8 7 5 5 5 5 6 5 3 4 2 2 2 3 2 3 3 4 3 3 4 5
3 7 10 13 15 15 16 17 17 15 13 10 8 4 4 3 4 5 6 7 8 8 7 7 6 6 4 6 5 4 2 2 3 3 1 1 3 3 4 3 4 6 4
8 2 5 12 12 13 15 17 17 17 14 13 6 2 2 1 3 4 5 7 8 8 8 8 7 6 5 5 5 5 6 4 2 6 4 2 4 1 1 5 4 5 4
8 9 8 4 9 15 13 15 16 16 14 13 12 12 10 8 5 5 4 6 8 8 8 8 8 7 5 6 6 6 5 4 4 1 4 2 3 3 1 2 4 4 5
7 9 9 7 8 4 11 12 14 15 14 14 13 10 6 5 4 4 8 7 6 8 8 9 8 8 6 6 7 6 7 5 4 4 2 2 1 1 2 3 3 2 4
10 9 6 7 6 5 5 8 11 12 12 13 9 13 10 8 6 5 6 5 5 6 8 10 9 9 8 8 8 7 8 7 5 4 4 4 4 4 3 2 3 3 4
10 13 14 9 9 7 5 6 9 8 9 12 12 10 12 11 11 9 7 6 6 4 10 10 9 8 10 9 7 8 8 8 6 7 6 4 4 3 3 3 2 3 3
11 13 13 17 12 9 4 2 4 6 8 9 10 10 10 9 8 8 7 8 8 9 8 10 10 12 10 10 9 5 7 7 8 9 7 5 5 4 4 4 4 2 2
11 13 14 15 14 19 14 4 4 4 5 7 7 8 8 8 10 9 7 8 8 8 8 12 13 12 12 12 11 10 10 7 9 9 8 7 5 5 5 4 4 5 3
12 12 12 13 13 13 11 15 10 7 6 8 7 8 10 10 9 7 11 9 9 10 10 12 12 12 13 12 11 10 9 11 8 8 9 9 6 6 5 5 5 4 5
9 10 11 11 11 13 11 10 12 9 8 7 6 8 8 9 9 10 11 12 10 10 11 12 13 13 13 13 13 14 12 14 12 11 11 13 9 8 6 5 4 5 5
8 8 8 8 11 12 11 9 12 12 10 7 6 8 7 9 11 12 13 12 12 10 12 11 12 14 14 14 15 16 15 16 15 14 13 14 8 12 9 8 11 9 8
9 9 10 11 10 12 12 11 8 12 13 12 8 8 6 7 10 13 12 11 12 14 13 14 13 14 15 14 15 16 15 15 17 15 15 15 13 13 11 12 11 10 8
7 7 7 7 8 10 12 13 10 10 13 12 9 9 8 7 8 9 10 11 13 14 13 14 16 14 14 15 14 15 15 16 15 15 15 16 17 18 16 14 15 11 10
7 6 7 7 8 10 12 12 11 12 13 12 8 8 8 8 8 7 8 10 10 12 13 13 14 15 13 12 15 15 16 16 16 15 15 16 19 25 20 13 15 14 12
9 8 9 9 10 11 12 13 11 13 12 13 11 7 7 8 8 8 8 7 9 10 9 12 14 15 12 19 21 19 15 16 17 17 16 17 20 21 27 27 24 20 16
8 10 11 11 11 10 10 12 11 9 10 12 13 8 7 10 12 11 9 8 8 9 10 11 11 13 15 21 22 24 17 16 17 18 16 14 14 19 16 25 27 23 26
6 6 6 11 12 8 13 10 10 8 8 10 12 7 10 11 12 12 12 10 6 7 8 10 11 11 11 18 22 24 19 18 19 18 18 18 17 17 17 16 18 20 20
8 7 8 10 7 11 12 13 14 12 8 12 10 9 11 12 13 11 14 11 10 9 7 8 10 11 14 15 19 18 17 18 19 17 18 19 19 20 24 19 18 18 18
9 10 11 11 12 11 9 11 9 12 15 13 10 10 11 11 13 13 12 9 11 12 9 9 8 13 13 16 18 16 12 16 13 15 18 23 22 22 23 21 18 20 17
14 13 13 9 8 10 11 8 12 12 13 8 12 15 10 10 11 11 10 11 12 11 10 10 10 9 11 12 16 19 14 13 13 13 13 13 22 27 25 29 21 21 14
11 11 11 11 10 8 8 12 11 11 9 10 13 12 13 10 10 10 11 12 10 8 12 11 10 7 8 12 15 18 22 20 15 15 12 13 17 21 27 23 30 26 17
14 13 10 12 9 8 10 12 11 9 11 11 12 11 13 13 12 9 9 8 9 9 10 9 10 10 8 6 13 19 20 22 17 14 16 18 18 20 20 26 28 27 13
15 14 15 16 15 12 10 13 16 13 12 13 12 11 11 12 11 9 7 7 7 9 9 10 10 10 10 8 5 7 8 13 14 15 14 14 14 15 16 14 17 15 14
14 14 14 13 13 14 15 14 14 14 13 13 13 12 11 11 11 11 9 8 8 10 12 12 11 12 12 11 12 10 8 6 10 11 4 4 4 8 8 9 10 12 13
17 15 15 17 16 16 17 15 15 14 15 15 12 11 11 10 10 10 9 12 14 18 21 23 18 13 17 21 23 21 20 18 14 5 8 8 8 10 10 10 10 11 15
Wind_Direction
222 211 187 179 168 164 169 175 174 177 172 180 176 176 195 188 208 200 200 200 191 188 181 189 197 183 184 196 195 194 209 278 213 47 339 311 259 218 209 198 188 195 202
281 199 176 171 173 168 170 173 179 172 180 183 187 172 167 190 187 198 210 199 192 188 183 183 197 193 181 200 202 182 184 237 192 156 111 258 325 311 237 215 206 206 204
21 343 219 177 170 168 169 176 179 180 179 180 160 128 122 151 184 204 209 208 191 190 187 189 188 197 190 198 198 185 181 203 265 216 157 110 225 191 246 235 224 198 209
27 29 19 301 199 187 174 171 176 179 180 170 180 190 199 199 206 195 200 207 198 195 191 191 191 195 188 201 203 196 186 153 212 279 225 222 156 176 302 290 249 220 211
33 30 11 330 218 218 178 173 171 178 178 182 182 186 194 200 183 179 194 206 209 203 197 195 194 201 197 202 197 193 198 187 175 191 175 217 273 196 145 227 266 296 239
10 10 13 9 351 191 184 164 167 179 173 180 178 188 189 182 185 198 199 203 207 212 208 200 201 203 202 203 206 204 196 199 200 192 205 182 174 198 179 211 239 219 254
18 14 5 3 9 1 188 188 176 183 181 182 185 186 193 193 197 198 204 194 207 208 215 202 205 208 212 209 200 203 201 198 200 201 215 210 209 164 172 150 220 234 265
21 21 16 20 3 10 42 163 206 201 184 186 197 194 195 202 205 202 197 210 216 218 209 206 207 211 206 209 205 204 208 196 205 206 209 209 217 195 181 173 154 277 283
27 22 22 24 16 23 7 341 175 220 217 214 200 202 200 199 206 204 206 213 217 218 206 207 211 212 210 208 207 212 213 199 205 212 206 212 217 211 207 188 172 161 228
32 25 23 20 20 16 10 25 3 293 231 212 213 214 210 210 208 196 216 214 219 219 210 209 213 213 213 212 207 214 212 205 209 207 201 211 213 213 207 203 197 187 169
36 30 24 17 16 15 12 12 12 9 345 300 253 214 215 212 207 209 220 224 224 216 221 214 214 213 215 212 211 218 213 214 216 215 207 217 198 214 208 200 197 201 171
32 25 20 18 18 9 3 356 4 358 343 320 294 251 228 208 210 219 224 222 226 220 222 218 216 218 217 214 215 217 215 214 216 215 212 218 200 214 205 202 213 211 200
31 22 17 20 13 6 355 352 346 352 345 342 338 334 281 248 225 224 223 218 222 227 225 223 218 219 218 216 218 221 222 221 222 215 210 213 199 211 206 207 212 211 208
40 30 18 8 4 1 354 346 340 347 347 344 345 0 345 305 256 248 232 221 219 225 226 224 226 222 218 216 218 220 223 227 227 225 218 213 204 213 206 205 211 205 203
21 26 19 2 354 353 351 345 341 343 344 339 334 344 342 340 334 298 265 249 226 227 227 225 226 227 219 216 217 219 223 227 231 226 222 220 217 215 209 201 210 201 202
10 7 10 0 351 342 341 338 333 339 337 336 329 323 342 337 329 324 314 283 258 245 226 226 226 225 225 226 219 218 224 226 228 230 229 228 223 222 218 213 212 202 196
13 5 348 342 335 326 325 321 319 323 327 329 324 319 336 338 332 321 315 307 285 266 251 240 226 230 231 229 224 219 228 229 228 229 230 230 229 219 219 222 220 211 211
349 331 315 320 317 316 323 310 316 307 312 322 322 320 338 331 327 321 319 308 288 274 260 254 244 237 234 228 228 224 227 233 233 231 229 229 227 220 210 216 220 219 214
312 301 306 301 298 314 311 313 316 317 312 319 310 317 328 321 319 315 314 310 309 296 266 253 255 241 249 234 228 224 235 237 237 234 231 231 232 225 207 212 218 221 222
309 315 313 304 303 300 296 303 308 315 311 309 302 311 314 310 308 307 303 301 303 299 291 280 261 254 255 247 234 223 237 243 242 239 239 232 232 226 213 216 219 227 219
301 299 301 286 279 290 297 286 302 294 294 292 311 305 298 294 293 300 302 303 302 306 301 292 281 261 257 258 243 232 238 243 245 242 242 236 226 228 222 212 225 228 223
294 292 289 288 286 281 281 290 290 280 282 295 300 292 299 294 298 292 294 297 298 298 310 303 297 280 263 253 258 247 237 245 247 247 246 241 228 220 224 220 228 233 217
302 300 281 283 280 270 280 281 281 281 281 285 285 286 292 293 293 285 287 295 298 300 298 300 300 297 290 260 254 260 256 245 249 255 252 243 221 224 223 224 223 226 219
335 340 339 328 325 328 324 314 307 293 284 283 278 281 283 284 284 283 279 282 289 294 294 298 297 299 296 290 264 262 268 263 258 254 259 253 241 220 225 224 220 220 219
325 325 317 314 317 316 315 316 319 322 323 313 301 292 287 279 278 274 276 274 278 276 289 289 290 294 292 291 274 260 273 251 252 257 246 245 224 233 228 222 214 213 216
315 308 304 305 309 312 311 314 310 303 303 303 305 311 309 298 284 281 282 276 269 271 274 273 270 281 274 285 286 283 273 266 249 252 245 241 229 233 235 227 219 210 210